Time,TemperatureF,DewpointF,PressureIn,WindDirection,WindDirectionDegrees,WindSpeedMPH,WindSpeedGustMPH,Humidity,HourlyPrecipIn,Conditions,Clouds,dailyrainin,SolarRadiationWatts/m^2,SoftwareType,DateUTC
2013-01-30 00:00:00,53.9,22.3,29.77,WSW,254,2.0,2.0,29,0.00,,,0.00,0,Wunderground v.1.15,2013-01-30 06:00:00,
2013-01-30 00:10:00,53.7,22.2,29.78,West,271,2.0,2.0,29,0.00,,,0.00,0,Wunderground v.1.15,2013-01-30 06:10:00,
2013-01-30 00:15:00,53.5,22.8,29.77,WSW,248,2.0,2.0,30,0.00,,,0.00,0,Wunderground v.1.15,2013-01-30 06:15:00,
2013-01-30 00:20:00,53.2,21.7,29.77,SW,230,2.0,2.0,29,0.00,,,0.00,0,Wunderground v.1.15,2013-01-30 06:20:00,
2013-01-30 00:30:00,53.0,23.1,29.78,WSW,243,1.0,1.0,31,0.00,,,0.00,0,Wunderground v.1.15,2013-01-30 06:30:00,
2013-01-30 00:35:00,52.7,23.6,29.78,WSW,240,0.0,1.0,32,0.00,,,0.00,0,Wunderground v.1.15,2013-01-30 06:35:00,
2013-01-30 00:40:00,52.4,22.6,29.78,WSW,251,0.0,0.0,31,0.00,,,0.00,0,Wunderground v.1.15,2013-01-30 06:40:00,
2013-01-30 00:45:00,52.0,24.5,29.78,WSW,251,0.0,0.0,34,0.00,,,0.00,0,Wunderground v.1.15,2013-01-30 06:45:00,
2013-01-30 00:50:00,51.5,24.7,29.78,WSW,251,0.0,0.0,35,0.00,,,0.00,0,Wunderground v.1.15,2013-01-30 06:50:00,
2013-01-30 00:55:00,51.1,23.7,29.78,WSW,251,0.0,1.0,34,0.00,,,0.00,0,Wunderground v.1.15,2013-01-30 06:55:00,
2013-01-30 01:00:00,50.6,24.6,29.78,WSW,251,0.0,0.0,36,0.00,,,0.00,0,Wunderground v.1.15,2013-01-30 07:00:00,
2013-01-30 01:05:00,50.2,25.5,29.78,WSW,251,0.0,0.0,38,0.00,,,0.00,0,Wunderground v.1.15,2013-01-30 07:05:00,
2013-01-30 01:15:00,49.3,27.2,29.79,WSW,251,0.0,0.0,42,0.00,,,0.00,0,Wunderground v.1.15,2013-01-30 07:15:00,
2013-01-30 01:20:00,48.9,25.0,29.79,WSW,251,0.0,0.0,39,0.00,,,0.00,0,Wunderground v.1.15,2013-01-30 07:20:00,
2013-01-30 01:30:00,48.6,25.3,29.79,SSW,211,0.0,0.0,40,0.00,,,0.00,0,Wunderground v.1.15,2013-01-30 07:30:00,
2013-01-30 01:35:00,48.3,27.9,29.79,SSW,211,0.0,0.0,45,0.00,,,0.00,0,Wunderground v.1.15,2013-01-30 07:35:00,
2013-01-30 01:40:00,48.1,27.7,29.79,SSW,211,0.0,0.0,45,0.00,,,0.00,0,Wunderground v.1.15,2013-01-30 07:40:00,
2013-01-30 01:45:00,47.8,26.4,29.79,SSW,211,0.0,0.0,43,0.00,,,0.00,0,Wunderground v.1.15,2013-01-30 07:45:00,
2013-01-30 01:50:00,47.5,23.7,29.80,SSW,211,0.0,0.0,39,0.00,,,0.00,0,Wunderground v.1.15,2013-01-30 07:50:00,
2013-01-30 01:55:00,47.7,25.1,29.80,SSW,211,0.0,0.0,41,0.00,,,0.00,0,Wunderground v.1.15,2013-01-30 07:55:00,
2013-01-30 02:00:00,47.6,25.6,29.80,SSW,211,0.0,0.0,42,0.00,,,0.00,0,Wunderground v.1.15,2013-01-30 08:00:00,
2013-01-30 02:05:00,47.4,24.9,29.79,SSW,211,0.0,0.0,41,0.00,,,0.00,0,Wunderground v.1.15,2013-01-30 08:05:00,
2013-01-30 02:15:00,46.9,27.2,29.80,SSW,211,0.0,0.0,46,0.00,,,0.00,0,Wunderground v.1.15,2013-01-30 08:15:00,
2013-01-30 02:20:00,46.6,29.4,29.80,SSW,211,0.0,0.0,51,0.00,,,0.00,0,Wunderground v.1.15,2013-01-30 08:20:00,
2013-01-30 02:25:00,46.0,24.7,29.80,SSW,211,0.0,0.0,43,0.00,,,0.00,0,Wunderground v.1.15,2013-01-30 08:25:00,
2013-01-30 02:30:00,45.8,27.2,29.80,SSW,211,0.0,0.0,48,0.00,,,0.00,0,Wunderground v.1.15,2013-01-30 08:30:00,
2013-01-30 02:35:00,45.5,28.9,29.81,SSW,211,0.0,0.0,52,0.00,,,0.00,0,Wunderground v.1.15,2013-01-30 08:35:00,
2013-01-30 02:45:00,44.7,27.2,29.81,SSW,211,0.0,0.0,50,0.00,,,0.00,0,Wunderground v.1.15,2013-01-30 08:45:00,
2013-01-30 02:50:00,44.6,25.1,29.81,SSW,211,0.0,0.0,46,0.00,,,0.00,0,Wunderground v.1.15,2013-01-30 08:50:00,
2013-01-30 02:55:00,44.7,25.7,29.81,SSW,211,0.0,0.0,47,0.00,,,0.00,0,Wunderground v.1.15,2013-01-30 08:55:00,
2013-01-30 03:00:00,44.5,25.0,29.81,SSW,211,0.0,0.0,46,0.00,,,0.00,0,Wunderground v.1.15,2013-01-30 09:00:00,
2013-01-30 03:05:00,44.6,24.5,29.81,SW,221,0.0,2.0,45,0.00,,,0.00,0,Wunderground v.1.15,2013-01-30 09:05:00,
2013-01-30 03:10:00,45.3,25.2,29.82,SW,221,0.0,0.0,45,0.00,,,0.00,0,Wunderground v.1.15,2013-01-30 09:10:00,
2013-01-30 03:20:00,46.3,23.9,29.82,West,259,0.0,2.0,41,0.00,,,0.00,0,Wunderground v.1.15,2013-01-30 09:20:00,
2013-01-30 03:30:00,47.2,24.1,29.83,SW,231,1.0,1.0,40,0.00,,,0.00,0,Wunderground v.1.15,2013-01-30 09:30:00,
2013-01-30 03:35:00,47.8,23.4,29.83,WSW,242,1.0,1.0,38,0.00,,,0.00,0,Wunderground v.1.15,2013-01-30 09:35:00,
2013-01-30 03:40:00,48.3,23.2,29.83,West,260,1.0,1.0,37,0.00,,,0.00,0,Wunderground v.1.15,2013-01-30 09:40:00,
2013-01-30 03:50:00,48.7,22.9,29.84,WSW,255,1.0,1.0,36,0.00,,,0.00,0,Wunderground v.1.15,2013-01-30 09:50:00,
2013-01-30 03:55:00,48.8,23.0,29.84,SW,236,1.0,1.0,36,0.00,,,0.00,0,Wunderground v.1.15,2013-01-30 09:55:00,
2013-01-30 04:00:00,48.9,23.1,29.84,SSW,205,1.0,1.0,36,0.00,,,0.00,0,Wunderground v.1.15,2013-01-30 10:00:00,
2013-01-30 04:05:00,48.9,23.1,29.84,SW,233,1.0,1.0,36,0.00,,,0.00,0,Wunderground v.1.15,2013-01-30 10:05:00,
2013-01-30 04:15:00,48.9,23.1,29.84,WSW,240,1.0,9.0,36,0.00,,,0.00,0,Wunderground v.1.15,2013-01-30 10:15:00,
2013-01-30 04:20:00,49.0,22.5,29.84,SW,219,1.0,1.0,35,0.00,,,0.00,0,Wunderground v.1.15,2013-01-30 10:20:00,
2013-01-30 04:30:00,48.8,22.3,29.84,WSW,240,1.0,1.0,35,0.00,,,0.00,0,Wunderground v.1.15,2013-01-30 10:30:00,
2013-01-30 04:35:00,48.8,22.3,29.84,SSW,196,1.0,1.0,35,0.00,,,0.00,0,Wunderground v.1.15,2013-01-30 10:35:00,
2013-01-30 04:40:00,48.8,20.9,29.85,South,171,1.0,4.0,33,0.00,,,0.00,0,Wunderground v.1.15,2013-01-30 10:40:00,
2013-01-30 04:45:00,48.8,21.6,29.85,WSW,251,2.0,4.0,34,0.00,,,0.00,0,Wunderground v.1.15,2013-01-30 10:45:00,
2013-01-30 04:50:00,48.8,20.9,29.85,SW,217,2.0,2.0,33,0.00,,,0.00,0,Wunderground v.1.15,2013-01-30 10:50:00,
2013-01-30 04:55:00,48.8,20.9,29.85,SW,219,2.0,2.0,33,0.00,,,0.00,0,Wunderground v.1.15,2013-01-30 10:55:00,
2013-01-30 05:00:00,49.1,20.5,29.85,West,267,3.0,4.0,32,0.00,,,0.00,0,Wunderground v.1.15,2013-01-30 11:00:00,
2013-01-30 05:05:00,49.4,20.0,29.86,West,270,4.0,4.0,31,0.00,,,0.00,0,Wunderground v.1.15,2013-01-30 11:05:00,
2013-01-30 05:10:00,49.4,20.7,29.86,SW,232,3.0,5.0,32,0.00,,,0.00,0,Wunderground v.1.15,2013-01-30 11:10:00,
2013-01-30 05:15:00,49.3,19.9,29.86,SW,215,3.0,5.0,31,0.00,,,0.00,0,Wunderground v.1.15,2013-01-30 11:15:00,
2013-01-30 05:20:00,49.3,19.9,29.86,WSW,244,4.0,4.0,31,0.00,,,0.00,0,Wunderground v.1.15,2013-01-30 11:20:00,
2013-01-30 05:30:00,49.3,19.9,29.86,SW,217,4.0,4.0,31,0.00,,,0.00,0,Wunderground v.1.15,2013-01-30 11:30:00,
2013-01-30 05:35:00,49.2,19.8,29.86,SW,233,5.0,5.0,31,0.00,,,0.00,0,Wunderground v.1.15,2013-01-30 11:35:00,
2013-01-30 05:40:00,49.2,19.8,29.86,West,275,4.0,5.0,31,0.00,,,0.00,0,Wunderground v.1.15,2013-01-30 11:40:00,
2013-01-30 05:45:00,49.1,20.5,29.88,SW,230,3.0,5.0,32,0.00,,,0.00,0,Wunderground v.1.15,2013-01-30 11:45:00,
2013-01-30 05:50:00,48.8,20.2,29.89,South,179,3.0,4.0,32,0.00,,,0.00,0,Wunderground v.1.15,2013-01-30 11:50:00,
2013-01-30 06:00:00,48.9,20.3,29.89,WNW,300,6.0,6.0,32,0.00,,,0.00,0,Wunderground v.1.15,2013-01-30 12:00:00,
2013-01-30 06:10:00,48.6,20.8,29.90,SW,235,4.0,5.0,33,0.00,,,0.00,0,Wunderground v.1.15,2013-01-30 12:10:00,
2013-01-30 06:15:00,48.4,20.6,29.90,SW,236,4.0,6.0,33,0.00,,,0.00,0,Wunderground v.1.15,2013-01-30 12:15:00,
2013-01-30 06:20:00,48.2,21.1,29.91,WSW,246,4.0,4.0,34,0.00,,,0.00,0,Wunderground v.1.15,2013-01-30 12:20:00,
2013-01-30 06:25:00,47.9,20.8,29.91,SW,232,3.0,4.0,34,0.00,,,0.00,0,Wunderground v.1.15,2013-01-30 12:25:00,
2013-01-30 06:35:00,47.7,22.0,29.92,WSW,237,4.0,9.0,36,0.00,,,0.00,0,Wunderground v.1.15,2013-01-30 12:35:00,
2013-01-30 06:45:00,47.6,22.6,29.93,WSW,239,7.0,8.0,37,0.00,,,0.00,0,Wunderground v.1.15,2013-01-30 12:45:00,
2013-01-30 06:50:00,47.2,22.9,29.94,WSW,238,5.0,5.0,38,0.00,,,0.00,0,Wunderground v.1.15,2013-01-30 12:50:00,
2013-01-30 06:55:00,47.0,23.3,29.94,WNW,285,4.0,5.0,39,0.00,,,0.00,0,Wunderground v.1.15,2013-01-30 12:55:00,
2013-01-30 07:00:00,46.6,23.5,29.94,WSW,242,4.0,10.0,40,0.00,,,0.00,0,Wunderground v.1.15,2013-01-30 13:00:00,
2013-01-30 07:10:00,46.4,26.2,29.96,WSW,246,7.0,11.0,45,0.00,,,0.00,0,Wunderground v.1.15,2013-01-30 13:10:00,
2013-01-30 07:15:00,46.1,26.4,29.96,WSW,241,6.0,11.0,46,0.00,,,0.00,0,Wunderground v.1.15,2013-01-30 13:15:00,
2013-01-30 07:20:00,45.8,27.2,29.97,West,262,6.0,6.0,48,0.00,,,0.00,0,Wunderground v.1.15,2013-01-30 13:20:00,
2013-01-30 07:25:00,45.6,27.5,29.97,NW,315,5.0,6.0,49,0.00,,,0.00,5,Wunderground v.1.15,2013-01-30 13:25:00,
2013-01-30 07:30:00,45.2,28.1,29.98,SW,221,5.0,10.0,51,0.00,,,0.00,9,Wunderground v.1.15,2013-01-30 13:30:00,
2013-01-30 07:35:00,45.0,28.9,29.97,WSW,248,5.0,10.0,53,0.00,,,0.00,12,Wunderground v.1.15,2013-01-30 13:35:00,
2013-01-30 07:40:00,44.8,29.2,29.98,WSW,248,6.0,6.0,54,0.00,,,0.00,18,Wunderground v.1.15,2013-01-30 13:40:00,
2013-01-30 07:45:00,44.7,29.5,29.98,SW,231,7.0,7.0,55,0.00,,,0.00,28,Wunderground v.1.15,2013-01-30 13:45:00,
2013-01-30 07:50:00,44.9,30.1,29.99,North,355,7.0,11.0,56,0.00,,,0.00,33,Wunderground v.1.15,2013-01-30 13:50:00,
2013-01-30 07:55:00,44.9,30.1,30.01,WSW,238,5.0,11.0,56,0.00,,,0.00,33,Wunderground v.1.15,2013-01-30 13:55:00,
2013-01-30 08:00:00,44.9,30.1,30.01,WSW,238,5.0,5.0,56,0.00,,,0.00,21,Wunderground v.1.15,2013-01-30 14:00:00,
2013-01-30 08:05:00,44.8,30.5,30.02,WSW,247,6.0,6.0,57,0.00,,,0.00,60,Wunderground v.1.15,2013-01-30 14:05:00,
2013-01-30 08:10:00,45.0,30.7,30.02,WSW,252,4.0,4.0,57,0.00,,,0.00,76,Wunderground v.1.15,2013-01-30 14:10:00,
2013-01-30 08:15:00,45.4,31.0,30.03,SSW,200,2.0,4.0,57,0.00,,,0.00,93,Wunderground v.1.15,2013-01-30 14:15:00,
2013-01-30 08:20:00,45.4,31.0,30.02,West,263,3.0,6.0,57,0.00,,,0.00,84,Wunderground v.1.15,2013-01-30 14:20:00,
2013-01-30 08:25:00,45.4,30.6,30.02,WNW,282,5.0,9.0,56,0.00,,,0.00,132,Wunderground v.1.15,2013-01-30 14:25:00,
2013-01-30 08:30:00,45.6,30.8,30.03,WSW,251,7.0,10.0,56,0.00,,,0.00,149,Wunderground v.1.15,2013-01-30 14:30:00,
2013-01-30 08:35:00,45.8,30.5,30.02,WNW,285,7.0,10.0,55,0.00,,,0.00,171,Wunderground v.1.15,2013-01-30 14:35:00,
2013-01-30 08:45:00,46.0,30.3,30.01,West,261,9.0,12.0,54,0.00,,,0.00,211,Wunderground v.1.15,2013-01-30 14:45:00,
2013-01-30 08:50:00,46.1,29.9,30.03,WSW,250,9.0,22.0,53,0.00,,,0.00,232,Wunderground v.1.15,2013-01-30 14:50:00,
2013-01-30 08:55:00,46.2,29.5,30.04,SW,223,9.0,22.0,52,0.00,,,0.00,251,Wunderground v.1.15,2013-01-30 14:55:00,
2013-01-30 09:00:00,46.3,29.6,30.04,WSW,248,9.0,9.0,52,0.00,,,0.00,265,Wunderground v.1.15,2013-01-30 15:00:00,
2013-01-30 09:05:00,46.6,29.9,30.05,West,269,8.0,9.0,52,0.00,,,0.00,281,Wunderground v.1.15,2013-01-30 15:05:00,
2013-01-30 09:10:00,46.8,29.6,30.05,West,269,7.0,13.0,51,0.00,,,0.00,304,Wunderground v.1.15,2013-01-30 15:10:00,
2013-01-30 09:15:00,47.2,29.5,30.06,WNW,282,7.0,13.0,50,0.00,,,0.00,316,Wunderground v.1.15,2013-01-30 15:15:00,
2013-01-30 09:25:00,47.6,28.9,30.07,WNW,290,8.0,8.0,48,0.00,,,0.00,346,Wunderground v.1.15,2013-01-30 15:25:00,
2013-01-30 09:30:00,47.8,29.0,30.07,WNW,296,7.0,12.0,48,0.00,,,0.00,366,Wunderground v.1.15,2013-01-30 15:30:00,
2013-01-30 09:40:00,48.5,29.2,30.07,WSW,252,7.0,14.0,47,0.00,,,0.00,394,Wunderground v.1.15,2013-01-30 15:40:00,
2013-01-30 09:45:00,48.4,28.5,30.08,NW,314,7.0,14.0,46,0.00,,,0.00,410,Wunderground v.1.15,2013-01-30 15:45:00,
2013-01-30 09:55:00,48.5,28.6,30.08,WNW,284,9.0,9.0,46,0.00,,,0.00,439,Wunderground v.1.15,2013-01-30 15:55:00,
2013-01-30 10:00:00,48.7,28.3,30.08,WSW,250,9.0,9.0,45,0.00,,,0.00,455,Wunderground v.1.15,2013-01-30 16:00:00,
2013-01-30 10:10:00,49.1,28.1,30.08,West,276,10.0,10.0,44,0.00,,,0.00,482,Wunderground v.1.15,2013-01-30 16:10:00,
2013-01-30 10:15:00,49.6,28.0,30.09,SSW,209,9.0,10.0,43,0.00,,,0.00,499,Wunderground v.1.15,2013-01-30 16:15:00,
2013-01-30 10:25:00,49.7,26.9,30.09,SW,229,11.0,15.0,41,0.00,,,0.00,520,Wunderground v.1.15,2013-01-30 16:25:00,
2013-01-30 10:30:00,50.0,26.6,30.09,WSW,238,10.0,19.0,40,0.00,,,0.00,534,Wunderground v.1.15,2013-01-30 16:30:00,
2013-01-30 10:35:00,50.0,26.6,30.09,WSW,250,10.0,19.0,40,0.00,,,0.00,547,Wunderground v.1.15,2013-01-30 16:35:00,
2013-01-30 10:40:00,50.6,27.1,30.09,WSW,246,9.0,9.0,40,0.00,,,0.00,559,Wunderground v.1.15,2013-01-30 16:40:00,
2013-01-30 10:45:00,51.0,26.3,30.09,WSW,237,9.0,13.0,38,0.00,,,0.00,570,Wunderground v.1.15,2013-01-30 16:45:00,
2013-01-30 10:50:00,50.8,26.1,30.09,WSW,245,10.0,15.0,38,0.00,,,0.00,577,Wunderground v.1.15,2013-01-30 16:50:00,
2013-01-30 10:55:00,50.9,26.2,30.10,WNW,284,11.0,15.0,38,0.00,,,0.00,592,Wunderground v.1.15,2013-01-30 16:55:00,
2013-01-30 11:00:00,51.3,25.9,30.10,West,264,10.0,12.0,37,0.00,,,0.00,601,Wunderground v.1.15,2013-01-30 17:00:00,
2013-01-30 11:05:00,51.4,25.3,30.10,NW,310,10.0,12.0,36,0.00,,,0.00,610,Wunderground v.1.15,2013-01-30 17:05:00,
2013-01-30 11:10:00,52.1,26.6,30.11,WSW,244,9.0,10.0,37,0.00,,,0.00,619,Wunderground v.1.15,2013-01-30 17:10:00,
2013-01-30 11:20:00,52.5,26.3,30.10,West,261,8.0,8.0,36,0.00,,,0.00,638,Wunderground v.1.15,2013-01-30 17:20:00,
2013-01-30 11:25:00,52.9,26.6,30.11,WSW,242,7.0,8.0,36,0.00,,,0.00,645,Wunderground v.1.15,2013-01-30 17:25:00,
2013-01-30 11:30:00,52.8,25.2,30.11,SW,228,8.0,11.0,34,0.00,,,0.00,652,Wunderground v.1.15,2013-01-30 17:30:00,
2013-01-30 11:35:00,52.4,24.8,30.11,WSW,244,9.0,11.0,34,0.00,,,0.00,657,Wunderground v.1.15,2013-01-30 17:35:00,
2013-01-30 11:40:00,52.7,25.8,30.11,WSW,240,9.0,9.0,35,0.00,,,0.00,664,Wunderground v.1.15,2013-01-30 17:40:00,
2013-01-30 11:45:00,53.0,25.3,30.11,WNW,293,8.0,9.0,34,0.00,,,0.00,670,Wunderground v.1.15,2013-01-30 17:45:00,
2013-01-30 11:50:00,53.2,25.5,30.11,West,281,7.0,8.0,34,0.00,,,0.00,675,Wunderground v.1.15,2013-01-30 17:50:00,
2013-01-30 12:00:00,53.1,26.1,30.11,WNW,293,8.0,8.0,35,0.00,,,0.00,682,Wunderground v.1.15,2013-01-30 18:00:00,
2013-01-30 12:10:00,53.4,26.4,30.11,West,265,9.0,11.0,35,0.00,,,0.00,689,Wunderground v.1.15,2013-01-30 18:10:00,
2013-01-30 12:15:00,53.6,25.9,30.11,WSW,244,8.0,11.0,34,0.00,,,0.00,693,Wunderground v.1.15,2013-01-30 18:15:00,
2013-01-30 12:20:00,53.5,25.8,30.11,WSW,252,9.0,9.0,34,0.00,,,0.00,698,Wunderground v.1.15,2013-01-30 18:20:00,
2013-01-30 12:30:00,54.0,24.8,30.11,West,269,8.0,8.0,32,0.00,,,0.00,701,Wunderground v.1.15,2013-01-30 18:30:00,
2013-01-30 12:35:00,54.4,24.4,30.10,West,274,8.0,12.0,31,0.00,,,0.00,707,Wunderground v.1.15,2013-01-30 18:35:00,
2013-01-30 12:40:00,53.8,24.6,30.10,WSW,246,9.0,9.0,32,0.00,,,0.00,705,Wunderground v.1.15,2013-01-30 18:40:00,
2013-01-30 12:45:00,53.7,24.5,30.10,West,263,10.0,10.0,32,0.00,,,0.00,705,Wunderground v.1.15,2013-01-30 18:45:00,
2013-01-30 12:50:00,53.9,24.7,30.10,NW,305,9.0,11.0,32,0.00,,,0.00,703,Wunderground v.1.15,2013-01-30 18:50:00,
2013-01-30 12:55:00,54.0,24.0,30.10,West,267,9.0,11.0,31,0.00,,,0.00,701,Wunderground v.1.15,2013-01-30 18:55:00,
2013-01-30 13:05:00,54.1,23.3,30.10,WSW,244,11.0,12.0,30,0.00,,,0.00,701,Wunderground v.1.15,2013-01-30 19:05:00,
2013-01-30 13:10:00,54.2,24.2,30.10,SW,219,10.0,10.0,31,0.00,,,0.00,698,Wunderground v.1.15,2013-01-30 19:10:00,
2013-01-30 13:15:00,55.0,24.1,30.09,West,273,8.0,10.0,30,0.00,,,0.00,696,Wunderground v.1.15,2013-01-30 19:15:00,
2013-01-30 13:20:00,54.8,23.9,30.09,West,275,8.0,8.0,30,0.00,,,0.00,693,Wunderground v.1.15,2013-01-30 19:20:00,
2013-01-30 13:25:00,55.3,24.4,30.10,SW,226,8.0,10.0,30,0.00,,,0.00,691,Wunderground v.1.15,2013-01-30 19:25:00,
2013-01-30 13:30:00,55.1,23.4,30.09,WSW,246,7.0,7.0,29,0.00,,,0.00,686,Wunderground v.1.15,2013-01-30 19:30:00,
2013-01-30 13:40:00,55.2,25.1,30.10,WNW,282,8.0,10.0,31,0.00,,,0.00,675,Wunderground v.1.15,2013-01-30 19:40:00,
2013-01-30 13:45:00,55.6,24.6,30.09,WNW,282,6.0,10.0,30,0.00,,,0.00,671,Wunderground v.1.15,2013-01-30 19:45:00,
2013-01-30 13:50:00,56.2,23.5,30.09,West,269,6.0,9.0,28,0.00,,,0.00,668,Wunderground v.1.15,2013-01-30 19:50:00,
2013-01-30 13:55:00,56.3,23.6,30.09,WNW,283,6.0,9.0,28,0.00,,,0.00,663,Wunderground v.1.15,2013-01-30 19:55:00,
2013-01-30 14:00:00,56.0,24.2,30.09,SW,221,6.0,6.0,29,0.00,,,0.00,656,Wunderground v.1.15,2013-01-30 20:00:00,
2013-01-30 14:05:00,56.3,23.6,30.09,SW,227,6.0,7.0,28,0.00,,,0.00,649,Wunderground v.1.15,2013-01-30 20:05:00,
2013-01-30 14:10:00,56.4,22.8,30.09,WSW,247,6.0,7.0,27,0.00,,,0.00,640,Wunderground v.1.15,2013-01-30 20:10:00,
2013-01-30 14:20:00,56.7,23.0,30.09,WSW,240,7.0,10.0,27,0.00,,,0.00,624,Wunderground v.1.15,2013-01-30 20:20:00,
2013-01-30 14:25:00,56.7,22.2,30.09,West,279,8.0,11.0,26,0.00,,,0.00,617,Wunderground v.1.15,2013-01-30 20:25:00,
2013-01-30 14:30:00,56.6,23.0,30.09,WNW,294,8.0,8.0,27,0.00,,,0.00,606,Wunderground v.1.15,2013-01-30 20:30:00,
2013-01-30 14:35:00,56.6,23.0,30.09,West,259,6.0,9.0,27,0.00,,,0.00,596,Wunderground v.1.15,2013-01-30 20:35:00,
2013-01-30 14:40:00,56.7,21.2,30.09,SW,219,6.0,6.0,25,0.00,,,0.00,589,Wunderground v.1.15,2013-01-30 20:40:00,
2013-01-30 14:45:00,56.8,21.3,30.09,WSW,254,7.0,11.0,25,0.00,,,0.00,578,Wunderground v.1.15,2013-01-30 20:45:00,
2013-01-30 14:50:00,57.0,22.4,30.09,WSW,248,6.0,6.0,26,0.00,,,0.00,568,Wunderground v.1.15,2013-01-30 20:50:00,
2013-01-30 14:55:00,57.6,22.0,30.10,WSW,249,5.0,8.0,25,0.00,,,0.00,555,Wunderground v.1.15,2013-01-30 20:55:00,
2013-01-30 15:00:00,57.8,21.2,30.10,South,178,4.0,6.0,24,0.00,,,0.00,545,Wunderground v.1.15,2013-01-30 21:00:00,
2013-01-30 15:05:00,57.7,22.1,30.10,WSW,243,5.0,12.0,25,0.00,,,0.00,534,Wunderground v.1.15,2013-01-30 21:05:00,
2013-01-30 15:10:00,57.1,20.6,30.10,WSW,239,6.0,8.0,24,0.00,,,0.00,520,Wunderground v.1.15,2013-01-30 21:10:00,
2013-01-30 15:15:00,57.2,20.7,30.10,SW,221,6.0,8.0,24,0.00,,,0.00,508,Wunderground v.1.15,2013-01-30 21:15:00,
2013-01-30 15:20:00,57.2,20.7,30.10,SW,233,6.0,6.0,24,0.00,,,0.00,494,Wunderground v.1.15,2013-01-30 21:20:00,
2013-01-30 15:25:00,56.9,19.4,30.10,SW,236,7.0,7.0,23,0.00,,,0.00,482,Wunderground v.1.15,2013-01-30 21:25:00,
2013-01-30 15:30:00,57.3,20.8,30.11,SW,236,6.0,6.0,24,0.00,,,0.00,469,Wunderground v.1.15,2013-01-30 21:30:00,
2013-01-30 15:35:00,57.4,18.8,30.11,WSW,254,6.0,9.0,22,0.00,,,0.00,455,Wunderground v.1.15,2013-01-30 21:35:00,
2013-01-30 15:45:00,57.1,18.6,30.11,WSW,246,7.0,7.0,22,0.00,,,0.00,425,Wunderground v.1.15,2013-01-30 21:45:00,
2013-01-30 15:50:00,57.1,19.6,30.11,WSW,248,6.0,6.0,23,0.00,,,0.00,410,Wunderground v.1.15,2013-01-30 21:50:00,
2013-01-30 15:55:00,57.1,18.6,30.10,WSW,247,6.0,9.0,22,0.00,,,0.00,394,Wunderground v.1.15,2013-01-30 21:55:00,
2013-01-30 16:00:00,56.8,18.3,30.10,NW,313,7.0,15.0,22,0.00,,,0.00,381,Wunderground v.1.15,2013-01-30 22:00:00,
2013-01-30 16:05:00,56.9,19.4,30.10,WNW,286,7.0,15.0,23,0.00,,,0.00,364,Wunderground v.1.15,2013-01-30 22:05:00,
2013-01-30 16:15:00,56.9,17.3,30.10,WSW,248,6.0,6.0,21,0.00,,,0.00,332,Wunderground v.1.15,2013-01-30 22:15:00,
2013-01-30 16:20:00,56.8,17.2,30.10,WSW,242,7.0,9.0,21,0.00,,,0.00,315,Wunderground v.1.15,2013-01-30 22:20:00,
2013-01-30 16:25:00,57.0,17.4,30.09,West,267,5.0,9.0,21,0.00,,,0.00,299,Wunderground v.1.15,2013-01-30 22:25:00,
2013-01-30 16:30:00,56.8,17.2,30.10,WNW,296,5.0,11.0,21,0.00,,,0.00,288,Wunderground v.1.15,2013-01-30 22:30:00,
2013-01-30 16:35:00,56.4,18.0,30.10,WSW,257,7.0,11.0,22,0.00,,,0.00,269,Wunderground v.1.15,2013-01-30 22:35:00,
2013-01-30 16:40:00,56.4,18.0,30.10,WSW,240,6.0,6.0,22,0.00,,,0.00,251,Wunderground v.1.15,2013-01-30 22:40:00,
2013-01-30 16:50:00,56.6,17.1,30.11,SW,219,5.0,5.0,21,0.00,,,0.00,213,Wunderground v.1.15,2013-01-30 22:50:00,
2013-01-30 16:55:00,56.6,17.1,30.11,West,266,5.0,5.0,21,0.00,,,0.00,192,Wunderground v.1.15,2013-01-30 22:55:00,
2013-01-30 17:00:00,56.5,17.0,30.12,West,276,5.0,5.0,21,0.00,,,0.00,171,Wunderground v.1.15,2013-01-30 23:00:00,
2013-01-30 17:05:00,56.4,18.0,30.12,WSW,256,5.0,6.0,22,0.00,,,0.00,153,Wunderground v.1.15,2013-01-30 23:05:00,
2013-01-30 17:15:00,55.9,17.6,30.12,West,267,4.0,5.0,22,0.00,,,0.00,111,Wunderground v.1.15,2013-01-30 23:15:00,
2013-01-30 17:20:00,55.5,15.0,30.12,West,271,5.0,5.0,20,0.00,,,0.00,91,Wunderground v.1.15,2013-01-30 23:20:00,
2013-01-30 17:25:00,55.3,16.0,30.12,WSW,250,6.0,6.0,21,0.00,,,0.00,74,Wunderground v.1.15,2013-01-30 23:25:00,
2013-01-30 17:30:00,55.1,16.9,30.12,SW,223,5.0,5.0,22,0.00,,,0.00,56,Wunderground v.1.15,2013-01-30 23:30:00,
2013-01-30 17:35:00,54.8,16.6,30.12,West,266,5.0,12.0,22,0.00,,,0.00,42,Wunderground v.1.15,2013-01-30 23:35:00,
2013-01-30 17:40:00,54.5,16.4,30.12,WSW,250,6.0,6.0,22,0.00,,,0.00,32,Wunderground v.1.15,2013-01-30 23:40:00,
2013-01-30 17:45:00,54.3,17.2,30.13,West,270,4.0,6.0,23,0.00,,,0.00,19,Wunderground v.1.15,2013-01-30 23:45:00,
2013-01-30 17:50:00,54.0,16.0,30.13,WSW,243,2.0,5.0,22,0.00,,,0.00,14,Wunderground v.1.15,2013-01-30 23:50:00,
2013-01-30 17:55:00,53.5,17.5,30.14,SW,225,2.0,5.0,24,0.00,,,0.00,11,Wunderground v.1.15,2013-01-30 23:55:00,
2013-01-30 18:00:00,52.8,16.9,30.14,WNW,300,2.0,5.0,24,0.00,,,0.00,9,Wunderground v.1.15,2013-01-31 00:00:00,
2013-01-30 18:10:00,51.7,17.0,30.13,West,277,1.0,1.0,25,0.00,,,0.00,0,Wunderground v.1.15,2013-01-31 00:10:00,
2013-01-30 18:15:00,50.9,17.2,30.14,West,268,1.0,1.0,26,0.00,,,0.00,0,Wunderground v.1.15,2013-01-31 00:15:00,
2013-01-30 18:20:00,50.3,17.5,30.14,West,272,1.0,1.0,27,0.00,,,0.00,0,Wunderground v.1.15,2013-01-31 00:20:00,
2013-01-30 18:25:00,49.8,18.0,30.14,West,273,1.0,1.0,28,0.00,,,0.00,0,Wunderground v.1.15,2013-01-31 00:25:00,
2013-01-30 18:30:00,49.3,19.1,30.14,West,273,0.0,0.0,30,0.00,,,0.00,0,Wunderground v.1.15,2013-01-31 00:30:00,
2013-01-30 18:35:00,48.9,20.3,30.14,West,273,0.0,0.0,32,0.00,,,0.00,0,Wunderground v.1.15,2013-01-31 00:35:00,
2013-01-30 18:40:00,48.4,21.3,30.14,West,273,0.0,0.0,34,0.00,,,0.00,0,Wunderground v.1.15,2013-01-31 00:40:00,
2013-01-30 18:45:00,47.8,20.8,30.15,West,273,0.0,0.0,34,0.00,,,0.00,0,Wunderground v.1.15,2013-01-31 00:45:00,
2013-01-30 18:50:00,47.2,21.6,30.15,West,273,0.0,0.0,36,0.00,,,0.00,0,Wunderground v.1.15,2013-01-31 00:50:00,
2013-01-30 19:00:00,45.8,22.8,30.16,West,273,0.0,0.0,40,0.00,,,0.00,0,Wunderground v.1.15,2013-01-31 01:00:00,
2013-01-30 19:05:00,44.9,23.2,30.16,West,273,0.0,0.0,42,0.00,,,0.00,0,Wunderground v.1.15,2013-01-31 01:05:00,
2013-01-30 19:10:00,44.3,25.8,30.16,West,273,0.0,0.0,48,0.00,,,0.00,0,Wunderground v.1.15,2013-01-31 01:10:00,
2013-01-30 19:15:00,43.7,24.2,30.16,West,273,0.0,0.0,46,0.00,,,0.00,0,Wunderground v.1.15,2013-01-31 01:15:00,
2013-01-30 19:20:00,42.6,23.2,30.17,West,273,0.0,0.0,46,0.00,,,0.00,0,Wunderground v.1.15,2013-01-31 01:20:00,
2013-01-30 19:30:00,40.7,24.0,30.17,West,273,0.0,0.0,51,0.00,,,0.00,0,Wunderground v.1.15,2013-01-31 01:30:00,
2013-01-30 19:35:00,40.1,24.3,30.17,West,273,0.0,0.0,53,0.00,,,0.00,0,Wunderground v.1.15,2013-01-31 01:35:00,
2013-01-30 19:40:00,39.4,24.6,30.17,West,273,0.0,0.0,55,0.00,,,0.00,0,Wunderground v.1.15,2013-01-31 01:40:00,
2013-01-30 19:45:00,38.8,25.7,30.17,West,273,0.0,0.0,59,0.00,,,0.00,0,Wunderground v.1.15,2013-01-31 01:45:00,
2013-01-30 19:50:00,38.4,24.5,30.17,West,273,0.0,0.0,57,0.00,,,0.00,0,Wunderground v.1.15,2013-01-31 01:50:00,
2013-01-30 19:55:00,38.0,24.5,30.18,West,273,0.0,0.0,58,0.00,,,0.00,0,Wunderground v.1.15,2013-01-31 01:55:00,
2013-01-30 20:05:00,37.2,24.2,30.18,West,273,0.0,0.0,59,0.00,,,0.00,0,Wunderground v.1.15,2013-01-31 02:05:00,
2013-01-30 20:10:00,37.0,25.9,30.18,West,273,0.0,0.0,64,0.00,,,0.00,0,Wunderground v.1.15,2013-01-31 02:10:00,
2013-01-30 20:15:00,36.6,24.4,30.18,West,273,0.0,0.0,61,0.00,,,0.00,0,Wunderground v.1.15,2013-01-31 02:15:00,
2013-01-30 20:20:00,36.1,24.7,30.18,West,273,0.0,0.0,63,0.00,,,0.00,0,Wunderground v.1.15,2013-01-31 02:20:00,
2013-01-30 20:25:00,35.6,24.2,30.19,West,273,0.0,0.0,63,0.00,,,0.00,0,Wunderground v.1.15,2013-01-31 02:25:00,
2013-01-30 20:30:00,35.2,24.6,30.18,West,273,0.0,0.0,65,0.00,,,0.00,0,Wunderground v.1.15,2013-01-31 02:30:00,
2013-01-30 20:40:00,34.6,24.4,30.19,West,273,0.0,0.0,66,0.00,,,0.00,0,Wunderground v.1.15,2013-01-31 02:40:00,
2013-01-30 20:50:00,34.1,23.9,30.19,West,273,0.0,0.0,66,0.00,,,0.00,0,Wunderground v.1.15,2013-01-31 02:50:00,
2013-01-30 20:55:00,33.9,23.7,30.19,West,273,0.0,0.0,66,0.00,,,0.00,0,Wunderground v.1.15,2013-01-31 02:55:00,
2013-01-30 21:00:00,33.7,25.0,30.19,West,273,0.0,0.0,70,0.00,,,0.00,0,Wunderground v.1.15,2013-01-31 03:00:00,
2013-01-30 21:05:00,33.5,24.4,30.19,West,273,0.0,0.0,69,0.00,,,0.00,0,Wunderground v.1.15,2013-01-31 03:05:00,
2013-01-30 21:15:00,32.8,24.4,30.20,West,273,0.0,0.0,71,0.00,,,0.00,0,Wunderground v.1.15,2013-01-31 03:15:00,
2013-01-30 21:20:00,32.4,24.0,30.19,West,273,0.0,0.0,71,0.00,,,0.00,0,Wunderground v.1.15,2013-01-31 03:20:00,
2013-01-30 21:25:00,32.0,24.0,30.19,West,273,0.0,0.0,72,0.00,,,0.00,0,Wunderground v.1.15,2013-01-31 03:25:00,
2013-01-30 21:30:00,31.7,23.4,30.19,West,273,0.0,0.0,71,0.00,,,0.00,0,Wunderground v.1.15,2013-01-31 03:30:00,
2013-01-30 21:35:00,31.5,23.8,30.19,West,273,0.0,0.0,73,0.00,,,0.00,0,Wunderground v.1.15,2013-01-31 03:35:00,
2013-01-30 21:40:00,31.3,23.6,30.20,West,273,0.0,0.0,73,0.00,,,0.00,0,Wunderground v.1.15,2013-01-31 03:40:00,
2013-01-30 21:45:00,31.0,24.0,30.20,West,273,0.0,0.0,75,0.00,,,0.00,0,Wunderground v.1.15,2013-01-31 03:45:00,
2013-01-30 21:50:00,30.8,23.5,30.20,West,273,0.0,0.0,74,0.00,,,0.00,0,Wunderground v.1.15,2013-01-31 03:50:00,
2013-01-30 21:55:00,30.7,24.0,30.20,West,273,0.0,0.0,76,0.00,,,0.00,0,Wunderground v.1.15,2013-01-31 03:55:00,
2013-01-30 22:00:00,30.6,23.9,30.20,West,273,0.0,0.0,76,0.00,,,0.00,0,Wunderground v.1.15,2013-01-31 04:00:00,
2013-01-30 22:05:00,30.5,24.1,30.20,West,273,0.0,0.0,77,0.00,,,0.00,0,Wunderground v.1.15,2013-01-31 04:05:00,
2013-01-30 22:15:00,30.2,23.9,30.21,West,273,0.0,0.0,77,0.00,,,0.00,0,Wunderground v.1.15,2013-01-31 04:15:00,
2013-01-30 22:20:00,30.1,23.8,30.21,West,273,0.0,0.0,77,0.00,,,0.00,0,Wunderground v.1.15,2013-01-31 04:20:00,
2013-01-30 22:25:00,30.1,24.1,30.21,West,273,0.0,0.0,78,0.00,,,0.00,0,Wunderground v.1.15,2013-01-31 04:25:00,
2013-01-30 22:30:00,30.1,24.1,30.21,West,273,0.0,0.0,78,0.00,,,0.00,0,Wunderground v.1.15,2013-01-31 04:30:00,
2013-01-30 22:35:00,30.1,24.1,30.21,West,273,0.0,0.0,78,0.00,,,0.00,0,Wunderground v.1.15,2013-01-31 04:35:00,
2013-01-30 22:45:00,29.8,23.8,30.21,West,273,0.0,0.0,78,0.00,,,0.00,0,Wunderground v.1.15,2013-01-31 04:45:00,
2013-01-30 22:50:00,29.7,23.7,30.22,West,273,0.0,0.0,78,0.00,,,0.00,0,Wunderground v.1.15,2013-01-31 04:50:00,
2013-01-30 22:55:00,29.5,23.5,30.21,West,273,0.0,0.0,78,0.00,,,0.00,0,Wunderground v.1.15,2013-01-31 04:55:00,
2013-01-30 23:00:00,29.4,23.7,30.22,West,273,0.0,0.0,79,0.00,,,0.00,0,Wunderground v.1.15,2013-01-31 05:00:00,
2013-01-30 23:05:00,29.3,23.9,30.21,West,273,0.0,0.0,80,0.00,,,0.00,0,Wunderground v.1.15,2013-01-31 05:05:00,
2013-01-30 23:10:00,29.2,23.8,30.22,West,273,0.0,0.0,80,0.00,,,0.00,0,Wunderground v.1.15,2013-01-31 05:10:00,
2013-01-30 23:15:00,29.1,23.7,30.22,West,273,0.0,0.0,80,0.00,,,0.00,0,Wunderground v.1.15,2013-01-31 05:15:00,
2013-01-30 23:25:00,28.8,23.7,30.22,West,273,0.0,0.0,81,0.00,,,0.00,0,Wunderground v.1.15,2013-01-31 05:25:00,
2013-01-30 23:30:00,28.8,23.7,30.23,West,273,0.0,0.0,81,0.00,,,0.00,0,Wunderground v.1.15,2013-01-31 05:30:00,
2013-01-30 23:35:00,28.8,23.7,30.23,West,273,0.0,0.0,81,0.00,,,0.00,0,Wunderground v.1.15,2013-01-31 05:35:00,
2013-01-30 23:40:00,28.7,23.6,30.23,West,273,0.0,0.0,81,0.00,,,0.00,0,Wunderground v.1.15,2013-01-31 05:40:00,
2013-01-30 23:45:00,28.7,23.9,30.23,West,273,0.0,0.0,82,0.00,,,0.00,0,Wunderground v.1.15,2013-01-31 05:45:00,
2013-01-30 23:55:00,28.5,23.4,30.23,West,273,0.0,0.0,81,0.00,,,0.00,0,Wunderground v.1.15,2013-01-31 05:55:00,